カタログに戻る

DMSP 5D-2 F13 DEB

運用中SSO
NORAD 40504·DEBRIS·🇺🇸 United States

打ち上げ Mar 24, 1995 から Vandenberg Space Force Base

Loading…

次のパス (今後24時間)

TLE

最新Source: Space-Track

元期: Sep 12, 2026, 11:15 UTC

1 40504U 95015CT  26255.46926530  .00001666  00000-0  78362-3 0  9996
2 40504  99.0377 264.0565 0044774 227.5381 132.2006 14.20905859591385

AllMySatでDMSP 5D-2 F13 DEBをリアルタイム追跡

Download on the App Store